Year,Month,Day,Hour,Minute,Value (Times are PST for temperature in C)
2015,07,06,07,46,15.50
2015,07,06,07,47,15.50
2015,07,06,07,48,15.50
2015,07,06,07,49,15.60
2015,07,06,07,50,15.60
2015,07,06,07,51,15.60
2015,07,06,07,52,15.70
2015,07,06,07,53,15.70
2015,07,06,07,54,15.80
2015,07,06,07,55,15.80
2015,07,06,07,56,15.80
2015,07,06,07,57,15.80
2015,07,06,07,58,15.90
2015,07,06,07,59,15.90
2015,07,06,08,00,15.90
2015,07,06,08,01,16.00
2015,07,06,08,02,16.10
2015,07,06,08,03,16.10
2015,07,06,08,04,16.10
2015,07,06,08,05,16.10
2015,07,06,08,06,16.10
2015,07,06,08,07,16.10
2015,07,06,08,08,16.20
2015,07,06,08,09,16.20
2015,07,06,08,10,16.20
2015,07,06,08,11,16.30
2015,07,06,08,12,16.30
2015,07,06,08,13,16.30
2015,07,06,08,14,16.30
2015,07,06,08,15,16.40
2015,07,06,08,16,16.40
2015,07,06,08,17,16.40
2015,07,06,08,18,16.40
2015,07,06,08,19,16.40
2015,07,06,08,20,16.40
2015,07,06,08,21,16.60
2015,07,06,08,22,16.60
2015,07,06,08,23,16.60
2015,07,06,08,24,16.50
2015,07,06,08,25,16.40
2015,07,06,08,26,16.40
2015,07,06,08,27,16.40
2015,07,06,08,28,16.40
2015,07,06,08,29,16.40
2015,07,06,08,30,16.40
2015,07,06,08,31,16.40
2015,07,06,08,32,16.50
2015,07,06,08,33,16.60
2015,07,06,08,34,16.60
2015,07,06,08,35,16.60
2015,07,06,08,36,16.70
2015,07,06,08,37,16.70
2015,07,06,08,38,16.70
2015,07,06,08,39,16.80
2015,07,06,08,40,16.90
2015,07,06,08,41,16.90
2015,07,06,08,42,16.90
2015,07,06,08,43,17.00
2015,07,06,08,44,17.00
2015,07,06,08,45,17.00
2015,07,06,08,46,17.00
2015,07,06,08,47,16.90
2015,07,06,08,48,16.90
2015,07,06,08,49,16.90
2015,07,06,08,50,17.00
2015,07,06,08,51,17.00
2015,07,06,08,52,17.00
2015,07,06,08,53,17.00
2015,07,06,08,54,17.10
2015,07,06,08,55,17.10
2015,07,06,08,56,17.20
2015,07,06,08,57,17.20
2015,07,06,08,58,17.30
2015,07,06,08,59,17.30
2015,07,06,09,00,17.30
2015,07,06,09,01,17.30
2015,07,06,09,02,17.30
2015,07,06,09,03,17.30
2015,07,06,09,04,17.30
2015,07,06,09,05,17.40
2015,07,06,09,06,17.40
2015,07,06,09,07,17.50
2015,07,06,09,08,17.50
2015,07,06,09,09,17.60
2015,07,06,09,10,17.60
2015,07,06,09,11,17.70
2015,07,06,09,12,17.80
2015,07,06,09,13,17.80
2015,07,06,09,14,17.80
2015,07,06,09,15,17.90
2015,07,06,09,16,17.90
2015,07,06,09,17,17.80
2015,07,06,09,18,17.80
2015,07,06,09,19,17.80
2015,07,06,09,20,17.80
2015,07,06,09,21,17.70
2015,07,06,09,22,17.70
2015,07,06,09,23,17.70
2015,07,06,09,24,17.70
2015,07,06,09,25,17.70
2015,07,06,09,26,17.70
2015,07,06,09,27,17.70
2015,07,06,09,28,17.80
2015,07,06,09,29,17.80
2015,07,06,09,30,17.90
2015,07,06,09,31,17.90
2015,07,06,09,32,17.90
2015,07,06,09,33,18.10
2015,07,06,09,34,18.10
2015,07,06,09,35,18.20
2015,07,06,09,36,18.20
2015,07,06,09,37,18.20
2015,07,06,09,38,18.30
2015,07,06,09,39,18.40
2015,07,06,09,40,18.50
2015,07,06,09,41,18.50
2015,07,06,09,42,18.60
2015,07,06,09,43,18.70
2015,07,06,09,44,18.70
2015,07,06,09,45,18.80
2015,07,06,09,46,18.90
2015,07,06,09,47,18.90
2015,07,06,09,48,18.90
2015,07,06,09,49,18.90
2015,07,06,09,50,18.90
2015,07,06,09,51,18.90
2015,07,06,09,52,18.90
2015,07,06,09,53,18.90
2015,07,06,09,54,18.80
2015,07,06,09,55,18.80
2015,07,06,09,56,18.90
2015,07,06,09,57,18.90
2015,07,06,09,58,18.90
2015,07,06,09,59,18.90
2015,07,06,10,00,18.80
2015,07,06,10,01,18.90
2015,07,06,10,02,18.90
2015,07,06,10,03,18.90
2015,07,06,10,04,18.90
2015,07,06,10,05,18.90
2015,07,06,10,06,18.90
2015,07,06,10,07,18.90
2015,07,06,10,08,18.90
2015,07,06,10,09,18.90
2015,07,06,10,10,18.90
2015,07,06,10,11,18.90
2015,07,06,10,12,18.80
2015,07,06,10,13,18.80
2015,07,06,10,14,18.70
2015,07,06,10,15,18.70
2015,07,06,10,16,18.70
2015,07,06,10,17,18.70
2015,07,06,10,18,18.70
2015,07,06,10,19,18.80
2015,07,06,10,20,18.80
2015,07,06,10,21,18.80
2015,07,06,10,22,18.90
2015,07,06,10,23,18.90
2015,07,06,10,24,19.00
2015,07,06,10,25,19.10
2015,07,06,10,26,19.10
2015,07,06,10,27,19.10
2015,07,06,10,28,19.20
2015,07,06,10,29,19.20
2015,07,06,10,30,19.20
2015,07,06,10,31,19.10
2015,07,06,10,32,19.10
2015,07,06,10,33,19.10
2015,07,06,10,34,19.00
2015,07,06,10,35,18.90
2015,07,06,10,36,18.90
2015,07,06,10,37,18.90
2015,07,06,10,38,18.90
2015,07,06,10,39,18.90
2015,07,06,10,40,18.90
2015,07,06,10,41,19.00
2015,07,06,10,42,19.10
2015,07,06,10,43,19.10
2015,07,06,10,44,19.10
2015,07,06,10,45,19.20
2015,07,06,10,46,19.20
2015,07,06,10,47,19.30
2015,07,06,10,48,19.30
2015,07,06,10,49,19.40
2015,07,06,10,50,19.40
2015,07,06,10,51,19.40
2015,07,06,10,52,19.40
2015,07,06,10,53,19.50
2015,07,06,10,54,19.50
2015,07,06,10,55,19.50
2015,07,06,10,56,19.60
2015,07,06,10,57,19.60
2015,07,06,10,58,19.70
2015,07,06,10,59,19.60
2015,07,06,11,00,19.60
2015,07,06,11,01,19.60
2015,07,06,11,02,19.70
2015,07,06,11,03,19.70
2015,07,06,11,04,19.80
2015,07,06,11,05,19.80
2015,07,06,11,06,19.80
2015,07,06,11,07,19.80
2015,07,06,11,08,19.80
2015,07,06,11,09,19.80
2015,07,06,11,10,19.90
2015,07,06,11,11,19.80
2015,07,06,11,12,19.80
2015,07,06,11,13,19.90
2015,07,06,11,14,19.90
2015,07,06,11,15,19.90
2015,07,06,11,16,19.90
2015,07,06,11,17,19.80
2015,07,06,11,18,19.70
2015,07,06,11,19,19.60
2015,07,06,11,20,19.50
2015,07,06,11,21,19.50
2015,07,06,11,22,19.40
2015,07,06,11,23,19.30
2015,07,06,11,24,19.30
2015,07,06,11,25,19.30
2015,07,06,11,26,19.40
2015,07,06,11,27,19.40
2015,07,06,11,28,19.40
2015,07,06,11,29,19.50
2015,07,06,11,30,19.60
2015,07,06,11,31,19.70
2015,07,06,11,32,19.70
2015,07,06,11,33,19.70
2015,07,06,11,34,19.70
2015,07,06,11,35,19.70
2015,07,06,11,36,19.60
2015,07,06,11,37,19.60
2015,07,06,11,38,19.70
2015,07,06,11,39,19.80
2015,07,06,11,40,19.80
2015,07,06,11,41,19.80
2015,07,06,11,42,19.90
2015,07,06,11,43,19.90
2015,07,06,11,44,19.90
2015,07,06,11,45,19.90
2015,07,06,11,46,20.10
2015,07,06,11,47,20.10
2015,07,06,11,48,20.20
2015,07,06,11,49,20.20
2015,07,06,11,50,20.30
2015,07,06,11,51,20.40
2015,07,06,11,52,20.40
2015,07,06,11,53,20.40
2015,07,06,11,54,20.20
2015,07,06,11,55,20.20
2015,07,06,11,56,20.00
2015,07,06,11,57,19.90
2015,07,06,11,58,19.90
2015,07,06,11,59,19.80
2015,07,06,12,00,19.80
2015,07,06,12,01,19.80
2015,07,06,12,02,19.80
2015,07,06,12,03,19.80
2015,07,06,12,04,19.80
2015,07,06,12,05,19.90
2015,07,06,12,06,19.90
2015,07,06,12,07,19.90
2015,07,06,12,08,19.80
2015,07,06,12,09,19.80
2015,07,06,12,10,19.90
2015,07,06,12,11,19.90
2015,07,06,12,12,20.00
2015,07,06,12,13,20.10
2015,07,06,12,14,20.10
2015,07,06,12,15,20.20
2015,07,06,12,16,20.20
2015,07,06,12,17,20.20
2015,07,06,12,18,20.20
2015,07,06,12,19,20.30
2015,07,06,12,20,20.40
2015,07,06,12,21,20.50
2015,07,06,12,22,20.50
2015,07,06,12,23,20.60
2015,07,06,12,24,20.60
2015,07,06,12,25,20.60
2015,07,06,12,26,20.60
2015,07,06,12,27,20.70
2015,07,06,12,28,20.70
2015,07,06,12,29,20.70
2015,07,06,12,30,20.70
2015,07,06,12,31,20.60
2015,07,06,12,32,20.50
2015,07,06,12,33,20.50
2015,07,06,12,34,20.50
2015,07,06,12,35,20.50
2015,07,06,12,36,20.50
2015,07,06,12,37,20.50
2015,07,06,12,38,20.50
2015,07,06,12,39,20.40
2015,07,06,12,40,20.40
2015,07,06,12,41,20.40
2015,07,06,12,42,20.30
2015,07,06,12,43,20.30
2015,07,06,12,44,20.30
2015,07,06,12,45,20.30
2015,07,06,12,46,20.30
2015,07,06,12,47,20.30
2015,07,06,12,48,20.30
2015,07,06,12,49,20.30
2015,07,06,12,50,20.30
2015,07,06,12,51,20.30
2015,07,06,12,52,20.40
2015,07,06,12,53,20.40
2015,07,06,12,54,20.40
2015,07,06,12,55,20.50
2015,07,06,12,56,20.60
2015,07,06,12,57,20.70
2015,07,06,12,58,20.80
2015,07,06,12,59,20.80
2015,07,06,13,00,20.90
2015,07,06,13,01,21.00
2015,07,06,13,02,21.10
2015,07,06,13,03,21.20
2015,07,06,13,04,21.30
2015,07,06,13,05,21.30
2015,07,06,13,06,21.30
2015,07,06,13,07,21.30
2015,07,06,13,08,21.30
2015,07,06,13,09,21.30
2015,07,06,13,10,21.30
2015,07,06,13,11,21.40
2015,07,06,13,12,21.40
2015,07,06,13,13,21.60
2015,07,06,13,14,21.60
2015,07,06,13,15,21.60
2015,07,06,13,16,21.70
2015,07,06,13,17,21.90
2015,07,06,13,18,22.00
2015,07,06,13,19,22.00
2015,07,06,13,20,22.00
2015,07,06,13,21,22.00
2015,07,06,13,22,22.00
2015,07,06,13,23,22.00
2015,07,06,13,24,22.00
2015,07,06,13,25,21.90
2015,07,06,13,26,21.80
2015,07,06,13,27,21.70
2015,07,06,13,28,21.70
2015,07,06,13,29,21.70
2015,07,06,13,30,21.70
2015,07,06,13,31,21.70
2015,07,06,13,32,21.70
2015,07,06,13,33,21.70
2015,07,06,13,34,21.80
2015,07,06,13,35,21.80
2015,07,06,13,36,21.90
2015,07,06,13,37,21.90
2015,07,06,13,38,21.90
2015,07,06,13,39,21.90
2015,07,06,13,40,21.80
2015,07,06,13,41,21.80
2015,07,06,13,42,21.80
2015,07,06,13,43,21.80
2015,07,06,13,44,21.80
2015,07,06,13,45,21.80
2015,07,06,13,46,21.90
2015,07,06,13,47,21.90
2015,07,06,13,48,21.90
2015,07,06,13,49,21.90
2015,07,06,13,50,21.90
2015,07,06,13,51,21.90
2015,07,06,13,52,21.90
2015,07,06,13,53,22.00
2015,07,06,13,54,22.00
2015,07,06,13,55,22.00
2015,07,06,13,56,21.90
2015,07,06,13,57,21.90
2015,07,06,13,58,21.90
2015,07,06,13,59,21.90
2015,07,06,14,00,21.90
2015,07,06,14,01,21.90
2015,07,06,14,02,21.90
2015,07,06,14,03,21.90
2015,07,06,14,04,21.90
2015,07,06,14,05,22.00
2015,07,06,14,06,22.00
2015,07,06,14,07,22.00
2015,07,06,14,08,21.90
2015,07,06,14,09,21.90
2015,07,06,14,10,21.90
2015,07,06,14,11,21.90
2015,07,06,14,12,21.90
2015,07,06,14,13,21.90
2015,07,06,14,14,21.90
2015,07,06,14,15,21.90
2015,07,06,14,16,21.90
2015,07,06,14,17,21.90
2015,07,06,14,18,21.90
2015,07,06,14,19,21.90
2015,07,06,14,20,22.00
2015,07,06,14,21,22.00
2015,07,06,14,22,22.00
2015,07,06,14,23,22.10
2015,07,06,14,24,22.20
2015,07,06,14,25,22.30
2015,07,06,14,26,22.40
2015,07,06,14,27,22.50
2015,07,06,14,28,22.60
2015,07,06,14,29,22.70
2015,07,06,14,30,22.70
2015,07,06,14,31,22.80
2015,07,06,14,32,22.80
2015,07,06,14,33,22.90
2015,07,06,14,34,22.90
2015,07,06,14,35,22.90
2015,07,06,14,36,22.90
2015,07,06,14,37,22.90
2015,07,06,14,38,22.90
2015,07,06,14,39,22.90
2015,07,06,14,40,23.00
2015,07,06,14,41,23.10
2015,07,06,14,42,23.20
2015,07,06,14,43,23.20
2015,07,06,14,44,23.20
2015,07,06,14,45,23.30
2015,07,06,14,46,23.20
2015,07,06,14,47,23.20
2015,07,06,14,48,23.20
2015,07,06,14,49,23.20
2015,07,06,14,50,23.20
2015,07,06,14,51,23.20
2015,07,06,14,52,23.00
2015,07,06,14,53,22.90
2015,07,06,14,54,22.90
2015,07,06,14,55,22.90
2015,07,06,14,56,23.00
2015,07,06,14,57,23.10
2015,07,06,14,58,23.10
2015,07,06,14,59,23.20
2015,07,06,15,00,23.20
2015,07,06,15,01,23.20
2015,07,06,15,02,23.20
2015,07,06,15,03,23.30
2015,07,06,15,04,23.30
2015,07,06,15,05,23.30
2015,07,06,15,06,23.30
2015,07,06,15,07,23.40
2015,07,06,15,08,23.40
2015,07,06,15,09,23.50
2015,07,06,15,10,23.60
2015,07,06,15,11,23.70
2015,07,06,15,12,23.70
2015,07,06,15,13,23.70
2015,07,06,15,14,23.70
2015,07,06,15,15,23.60
2015,07,06,15,16,23.60
2015,07,06,15,17,23.50
2015,07,06,15,18,23.40
2015,07,06,15,19,23.60
2015,07,06,15,20,23.60
2015,07,06,15,21,23.60
2015,07,06,15,22,23.60
2015,07,06,15,23,23.60
2015,07,06,15,24,23.60
2015,07,06,15,25,23.70
2015,07,06,15,26,23.60
2015,07,06,15,27,23.60
2015,07,06,15,28,23.40
2015,07,06,15,29,23.40
2015,07,06,15,30,23.30
2015,07,06,15,31,23.30
2015,07,06,15,32,23.20
2015,07,06,15,33,23.20
2015,07,06,15,34,23.20
2015,07,06,15,35,23.20
2015,07,06,15,36,23.20
2015,07,06,15,37,23.20
2015,07,06,15,38,23.20
2015,07,06,15,39,23.20
2015,07,06,15,40,23.20
2015,07,06,15,41,23.20
2015,07,06,15,42,23.20
2015,07,06,15,43,23.20
2015,07,06,15,44,23.20
2015,07,06,15,45,23.20
2015,07,06,15,46,23.30
2015,07,06,15,47,23.30
2015,07,06,15,48,23.30
2015,07,06,15,49,23.40
2015,07,06,15,50,23.40
2015,07,06,15,51,23.40
2015,07,06,15,52,23.40
2015,07,06,15,53,23.30
2015,07,06,15,54,23.30
2015,07,06,15,55,23.30
2015,07,06,15,56,23.30
2015,07,06,15,57,23.30
2015,07,06,15,58,23.30
2015,07,06,15,59,23.30
2015,07,06,16,00,23.30
2015,07,06,16,01,23.30
2015,07,06,16,02,23.30
2015,07,06,16,03,23.30
2015,07,06,16,04,23.30
2015,07,06,16,05,23.30
2015,07,06,16,06,23.30
2015,07,06,16,07,23.30
2015,07,06,16,08,23.30
2015,07,06,16,09,23.40
2015,07,06,16,10,23.40
2015,07,06,16,11,23.40
2015,07,06,16,12,23.40
2015,07,06,16,13,23.50
2015,07,06,16,14,23.60
2015,07,06,16,15,23.60
2015,07,06,16,16,23.60
2015,07,06,16,17,23.60
2015,07,06,16,18,23.60
2015,07,06,16,19,23.60
2015,07,06,16,20,23.50
2015,07,06,16,21,23.40
2015,07,06,16,22,23.40
2015,07,06,16,23,23.50
2015,07,06,16,24,23.50
2015,07,06,16,25,23.60
2015,07,06,16,26,23.60
2015,07,06,16,27,23.60
2015,07,06,16,28,23.60
2015,07,06,16,29,23.60
2015,07,06,16,30,23.60
2015,07,06,16,31,23.70
2015,07,06,16,32,23.70
2015,07,06,16,33,23.70
2015,07,06,16,34,23.80
2015,07,06,16,35,23.80
2015,07,06,16,36,23.80
2015,07,06,16,37,23.80
2015,07,06,16,38,23.80
2015,07,06,16,39,23.80
2015,07,06,16,40,23.80
2015,07,06,16,41,23.80
2015,07,06,16,42,23.80
2015,07,06,16,43,23.80
2015,07,06,16,44,23.80
2015,07,06,16,45,23.80
2015,07,06,16,46,23.80
2015,07,06,16,47,23.80
2015,07,06,16,48,23.80
2015,07,06,16,49,23.70
2015,07,06,16,50,23.70
2015,07,06,16,51,23.70
2015,07,06,16,52,23.70
2015,07,06,16,53,23.70
2015,07,06,16,54,23.70
2015,07,06,16,55,23.70
2015,07,06,16,56,23.80
2015,07,06,16,57,23.80
2015,07,06,16,58,23.80
2015,07,06,16,59,23.80
2015,07,06,17,00,23.90
2015,07,06,17,01,23.90
2015,07,06,17,02,24.00
2015,07,06,17,03,24.10
2015,07,06,17,04,24.10
2015,07,06,17,05,24.20
2015,07,06,17,06,24.30
2015,07,06,17,07,24.30
2015,07,06,17,08,24.40
2015,07,06,17,09,24.50
2015,07,06,17,10,24.50
2015,07,06,17,11,24.50
2015,07,06,17,12,24.60
2015,07,06,17,13,24.70
2015,07,06,17,14,24.70
2015,07,06,17,15,24.70
2015,07,06,17,16,24.70
2015,07,06,17,17,24.80
2015,07,06,17,18,24.80
2015,07,06,17,19,24.80
2015,07,06,17,20,24.80
2015,07,06,17,21,24.80
2015,07,06,17,22,24.80
2015,07,06,17,23,24.80
2015,07,06,17,24,24.80
2015,07,06,17,25,24.80
2015,07,06,17,26,24.70
2015,07,06,17,27,24.70
2015,07,06,17,28,24.70
2015,07,06,17,29,24.70
2015,07,06,17,30,24.70
2015,07,06,17,31,24.80
2015,07,06,17,32,24.80
2015,07,06,17,33,24.90
2015,07,06,17,34,24.90
2015,07,06,17,35,24.90
2015,07,06,17,36,24.90
2015,07,06,17,37,24.90
2015,07,06,17,38,24.90
2015,07,06,17,39,25.00
2015,07,06,17,40,25.00
2015,07,06,17,41,25.00
2015,07,06,17,42,25.00
2015,07,06,17,43,25.00
2015,07,06,17,44,25.00
2015,07,06,17,45,25.00
2015,07,06,17,46,25.00
2015,07,06,17,47,25.00
2015,07,06,17,48,25.00
2015,07,06,17,49,25.00
2015,07,06,17,50,25.10
2015,07,06,17,51,25.10
2015,07,06,17,52,25.10
2015,07,06,17,53,25.10
2015,07,06,17,54,25.10
2015,07,06,17,55,25.10
2015,07,06,17,56,25.10
2015,07,06,17,57,25.00
2015,07,06,17,58,25.00
2015,07,06,17,59,24.90
2015,07,06,18,00,24.90
2015,07,06,18,01,24.90
2015,07,06,18,02,24.90
2015,07,06,18,03,24.90
2015,07,06,18,04,24.80
2015,07,06,18,05,24.80
2015,07,06,18,06,24.80
2015,07,06,18,07,24.70
2015,07,06,18,08,24.60
2015,07,06,18,09,24.60
2015,07,06,18,10,24.50
2015,07,06,18,11,24.50
2015,07,06,18,12,24.40
2015,07,06,18,13,24.40
2015,07,06,18,14,24.40
2015,07,06,18,15,24.40
2015,07,06,18,16,24.30
2015,07,06,18,17,24.30
2015,07,06,18,18,24.40
2015,07,06,18,19,24.40
2015,07,06,18,20,24.40
2015,07,06,18,21,24.40
2015,07,06,18,22,24.40
2015,07,06,18,23,24.40
2015,07,06,18,24,24.40
2015,07,06,18,25,24.40
2015,07,06,18,26,24.40
2015,07,06,18,27,24.40
2015,07,06,18,28,24.30
2015,07,06,18,29,24.30
2015,07,06,18,30,24.30
2015,07,06,18,31,24.30
2015,07,06,18,32,24.20
2015,07,06,18,33,24.10
2015,07,06,18,34,24.10
2015,07,06,18,35,24.10
2015,07,06,18,36,24.00
2015,07,06,18,37,23.90
2015,07,06,18,38,23.90
2015,07,06,18,39,23.80
2015,07,06,18,40,23.80
2015,07,06,18,41,23.80
2015,07,06,18,42,23.80
2015,07,06,18,43,23.70
2015,07,06,18,44,23.70
2015,07,06,18,45,23.70
2015,07,06,18,46,23.70
2015,07,06,18,47,23.70
2015,07,06,18,48,23.60
2015,07,06,18,49,23.60
2015,07,06,18,50,23.60
2015,07,06,18,51,23.50
2015,07,06,18,52,23.40
2015,07,06,18,53,23.30
2015,07,06,18,54,23.30
2015,07,06,18,55,23.30
2015,07,06,18,56,23.20
2015,07,06,18,57,23.20
2015,07,06,18,58,23.20
2015,07,06,18,59,23.20
2015,07,06,19,00,23.20
2015,07,06,19,01,23.20
2015,07,06,19,02,23.20
2015,07,06,19,03,23.20
2015,07,06,19,04,23.20
2015,07,06,19,05,23.10
2015,07,06,19,06,23.10
2015,07,06,19,07,23.10
2015,07,06,19,08,23.10
2015,07,06,19,09,23.10
2015,07,06,19,10,23.10
2015,07,06,19,11,23.00
2015,07,06,19,12,22.90
2015,07,06,19,13,22.90
2015,07,06,19,14,22.90
2015,07,06,19,15,22.80
2015,07,06,19,16,22.80
2015,07,06,19,17,22.70
2015,07,06,19,18,22.70
2015,07,06,19,19,22.70
2015,07,06,19,20,22.70
2015,07,06,19,21,22.70
2015,07,06,19,22,22.80
2015,07,06,19,23,22.80
2015,07,06,19,24,22.80
2015,07,06,19,25,22.80
2015,07,06,19,26,22.80
2015,07,06,19,27,22.80
2015,07,06,19,28,22.80
2015,07,06,19,29,22.70
2015,07,06,19,30,22.70
2015,07,06,19,31,22.70
2015,07,06,19,32,22.70
2015,07,06,19,33,22.70
2015,07,06,19,34,22.70
2015,07,06,19,35,22.70
2015,07,06,19,36,22.70
2015,07,06,19,37,22.70
2015,07,06,19,38,22.60
2015,07,06,19,39,22.60
2015,07,06,19,40,22.60
2015,07,06,19,41,22.60
2015,07,06,19,42,22.60
2015,07,06,19,43,22.60
2015,07,06,19,44,22.50
2015,07,06,19,45,22.50
2015,07,06,19,46,22.50
2015,07,06,19,47,22.40
2015,07,06,19,48,22.40
2015,07,06,19,49,22.30
2015,07,06,19,50,22.20
2015,07,06,19,51,22.20
2015,07,06,19,52,22.10
2015,07,06,19,53,22.00
2015,07,06,19,54,22.00
2015,07,06,19,55,21.90
2015,07,06,19,56,21.90
2015,07,06,19,57,21.80
2015,07,06,19,58,21.80
2015,07,06,19,59,21.80
2015,07,06,20,00,21.80
2015,07,06,20,01,21.70
2015,07,06,20,02,21.70
2015,07,06,20,03,21.70
2015,07,06,20,04,21.60
2015,07,06,20,05,21.60
2015,07,06,20,06,21.60
2015,07,06,20,07,21.60
2015,07,06,20,08,21.50
2015,07,06,20,09,21.40
2015,07,06,20,10,21.40
2015,07,06,20,11,21.30
2015,07,06,20,12,21.30
2015,07,06,20,13,21.30
2015,07,06,20,14,21.20
2015,07,06,20,15,21.10
2015,07,06,20,16,21.00
2015,07,06,20,17,20.90
2015,07,06,20,18,20.90
2015,07,06,20,19,20.80
2015,07,06,20,20,20.80
2015,07,06,20,21,20.70
2015,07,06,20,22,20.70
2015,07,06,20,23,20.60
2015,07,06,20,24,20.60
2015,07,06,20,25,20.50
2015,07,06,20,26,20.50
2015,07,06,20,27,20.40
2015,07,06,20,28,20.40
2015,07,06,20,29,20.30
2015,07,06,20,30,20.30
2015,07,06,20,31,20.30
2015,07,06,20,32,20.20
2015,07,06,20,33,20.20
2015,07,06,20,34,20.20
2015,07,06,20,35,20.20
2015,07,06,20,36,20.20
2015,07,06,20,37,20.20
2015,07,06,20,38,20.20
2015,07,06,20,39,20.10
2015,07,06,20,40,20.10
2015,07,06,20,41,20.10
2015,07,06,20,42,20.00
2015,07,06,20,43,19.90
2015,07,06,20,44,19.90
2015,07,06,20,45,19.90
2015,07,06,20,46,19.90
2015,07,06,20,47,19.90
2015,07,06,20,48,19.90
2015,07,06,20,49,19.90
2015,07,06,20,50,19.90
2015,07,06,20,51,19.90
2015,07,06,20,52,19.90
